Weather History for Wittering, United Kingdom

Change the Weather History Date:

Wednesday, January 30, 2013

  Actual Average Record
Temperature  
Mean Temperature 46 °F -  
Max Temperature 51 °F 44 °F 55 °F (2000)
Min Temperature 42 °F 34 °F 30 °F (2003)
Degree Days  
Heating Degree Days 18    
Moisture  
Dew Point 39 °F    
Average Humidity 72    
Maximum Humidity 94    
Minimum Humidity 38    
Precipitation  
Precipitation 0.00 in - - ()
Sea Level Pressure  
Sea Level Pressure 29.64 in    
Wind  
Wind Speed 18 mph ()    
Max Wind Speed 33 mph    
Max Gust Speed 56 mph    
Visibility 6.6 miles    
Events Rain    
Averages and records for this station are not official NWS values.
T = Trace of Precipitation, MM = Missing Value Source: Averaged Metar Reports

Daily Weather History Graph

Daily Weather History Graph

Search for Another Location

Airport:

Trip Planner

Search our weather history database for the weather conditions in past years. The results will help you decide how hot, cold, wet, or windy it might be!

Date:

Astronomy

Jan. 30, 2013 Rise Set
Actual Time 7:46 AM GMT 4:44 PM GMT
Civil Twilight 7:09 AM GMT 5:21 PM GMT
Nautical Twilight 6:27 AM GMT 6:03 PM GMT
Astronomical Twilight 5:47 AM GMT 6:43 PM GMT
Moon 9:05 PM GMT (1/30) 8:33 AM GMT (1/30)
Length of Visible Light 10h 12m
Length of Day
8h 57m
Waning Gibbous, 89% of the Moon is Illuminated
Jan 30
Waning Gibbous
Feb 3
Last Quarter
Feb 10
New
Feb 17
First Quarter
Feb 25
Full

Hourly Weather History & Observations

Time (GMT) Temp. Windchill Dew Point Humidity Pressure Visibility Wind Dir Wind Speed Gust Speed Precip Events Conditions
12:50 AM 51.8 °F - 48.2 °F 88% 29.44 in 6.2 mi WSW 17.3 mph - N/A Rain Light Rain
1:50 AM 50.0 °F - 48.2 °F 94% 29.44 in 6.2 mi West 15.0 mph - N/A Rain Rain
2:50 AM 48 °F - 46 °F 89% 29.48 in 5 mi SW 15.0 mph - - Rain Rain
2:50 AM 48.2 °F - 46.4 °F 93% 29.44 in 5.0 mi SW 15.0 mph - N/A Rain Rain
3:50 AM 48.2 °F - 44.6 °F 87% 29.44 in 6.2 mi SW 12.7 mph - N/A Rain Light Rain Showers
4:50 AM 48.2 °F - 44.6 °F 87% 29.44 in 6.2 mi SW 13.8 mph - N/A   Overcast
5:50 AM 48.2 °F - 42.8 °F 82% 29.47 in 6.2 mi WSW 13.8 mph - N/A   Overcast
6:50 AM 48.2 °F - 44.6 °F 87% 29.47 in - WSW 16.1 mph - N/A   Mostly Cloudy
7:50 AM 48.2 °F - 44.6 °F 87% 29.50 in 6.2 mi SW 20.7 mph - N/A   Mostly Cloudy
8:50 AM 48 °F - 40 °F 66% 29.55 in - WSW 21.9 mph - -   Mostly Cloudy
8:50 AM 48.2 °F - 41.0 °F 76% 29.53 in - WSW 21.9 mph - N/A   Mostly Cloudy
9:50 AM 48.2 °F - 41.0 °F 76% 29.56 in 6.2 mi WSW 20.7 mph - N/A   Mostly Cloudy
10:50 AM 50.0 °F - 41.0 °F 71% 29.56 in 6.2 mi WSW 21.9 mph - N/A   Unknown
11:50 AM 51 °F - 39 °F 54% 29.61 in 25 mi WSW 23.0 mph - -   Scattered Clouds
11:50 AM 50.0 °F - 39.2 °F 66% 29.59 in 6.2 mi WSW 23.0 mph - N/A   Scattered Clouds
12:50 PM 50.0 °F - 35.6 °F 58% 29.62 in 6.2 mi WSW 26.5 mph - N/A   Partly Cloudy
1:50 PM 51.8 °F - 35.6 °F 54% 29.62 in 6.2 mi WSW 26.5 mph 38.0 mph N/A   Partly Cloudy
2:50 PM 50 °F - 32 °F 38% 29.65 in 25 mi West 33.4 mph - -   Scattered Clouds
2:50 PM 50.0 °F - 32.0 °F 50% 29.62 in 6.2 mi West 33.4 mph 56.4 mph N/A   Partly Cloudy
3:50 PM 50.0 °F - 32.0 °F 50% 29.65 in 6.2 mi WSW 29.9 mph 41.4 mph N/A   Mostly Cloudy
4:50 PM 48.2 °F - 33.8 °F 58% 29.68 in 6.2 mi WSW 33.4 mph 44.9 mph N/A   Mostly Cloudy
5:50 PM 45 °F - 37 °F 64% 29.74 in 19 mi WSW 26.5 mph - - Rain Rain
5:50 PM 44.6 °F 35.3 °F 37.4 °F 76% 29.71 in 6.2 mi WSW 26.5 mph - N/A   Unknown
6:50 PM 46.4 °F 36.7 °F 37.4 °F 71% 29.77 in 6.2 mi West 33.4 mph - N/A   Partly Cloudy
7:50 PM 44.6 °F 36.4 °F 37.4 °F 76% 29.83 in 6.2 mi West 20.7 mph - N/A   Unknown
8:50 PM 43 °F - 37 °F 72% 29.87 in 31 mi WSW 17.3 mph - -  
8:50 PM 42.8 °F 34.8 °F 37.4 °F 81% 29.86 in 6.2 mi WSW 17.3 mph - N/A   Unknown
9:50 PM 42.8 °F 34.8 °F 35.6 °F 76% 29.86 in 6.2 mi WSW 17.3 mph - N/A   Unknown
10:50 PM 42.8 °F 34.0 °F 35.6 °F 76% 29.89 in 6.2 mi WSW 20.7 mph - N/A   Unknown
11:50 PM 43 °F - 36 °F 67% 29.94 in 31 mi WSW 19.6 mph - -   Scattered Clouds
11:50 PM 42.8 °F 34.3 °F 35.6 °F 76% 29.92 in 6.2 mi WSW 19.6 mph - N/A   Partly Cloudy